DW7229 Weather Reports


time (UTC)temp
C
wind
direction
speed
KPH
gust
KPH
rain 1hr
cm
rain 24hr
cm
rain mn
cm
humidity
%
barometer
mb
20260505183515 29 228 11.3 24.1 0.00 0.00 0.00 29 1005.5
20260505182518 28 240 9.7 17.7 0.00 0.00 0.00 30 1005.7
20260505181521 29 207 11.3 24.1 0.00 0.00 0.00 30 1005.7
20260505180525 28 269 8.0 17.7 0.00 0.00 0.00 31 1005.7
20260505175528 29 189 3.2 14.5 0.00 0.00 0.00 31 1006.0
20260505174531 28 233 11.3 20.9 0.00 0.00 0.00 31 1006.1
20260505173517 28 211 8.0 27.4 0.00 0.00 0.00 32 1006.4
20260505172520 28 246 8.0 17.7 0.00 0.00 0.00 33 1006.4
20260505171523 28 196 3.2 17.7 0.00 0.00 0.00 34 1006.7
20260505170527 27 173 3.2 17.7 0.00 0.00 0.00 34 1006.9
20260505165530 27 204 4.8 12.9 0.00 0.00 0.00 35 1007.0
20260505164515 27 230 8.0 12.9 0.00 0.00 0.00 36 1007.2
20260505163518 26 197 4.8 11.3 0.00 0.00 0.00 36 1007.2
20260505162522 27 270 0.0 6.4 0.00 0.00 0.00 37 1007.8
20260505161525 26 135 0.0 3.2 0.00 0.00 0.00 38 1007.9
20260505160548 26 211 3.2 6.4 0.00 0.00 0.00 39 1008.1
20260505152523 24 215 3.2 9.7 0.00 0.00 0.00 41 1008.6
20260505151521 23 242 3.2 12.9 0.00 0.00 0.00 42 1008.6
20260505150518 22 231 3.2 8.0 0.00 0.00 0.00 44 1008.7
20260505140532 20 181 3.2 14.5 0.00 0.00 0.00 50 1008.7
20260505124602 15 191 1.6 4.8 0.00 0.00 0.00 58 1009.0
20260505123525 15 236 3.2 8.0 0.00 0.00 0.00 58 1009.0
20260505122529 15 225 1.6 8.0 0.00 0.00 0.00 59 1009.2
20260505121552 15 192 3.2 12.9 0.00 0.00 0.00 59 1009.0
20260505120517 15 257 3.2 6.4 0.00 0.00 0.00 59 1008.8
20260505115520 15 261 3.2 9.7 0.00 0.00 0.00 59 1008.8
20260505114524 14 232 3.2 8.0 0.00 0.00 0.00 61 1008.7
20260505113521 13 237 4.8 9.7 0.00 0.00 0.00 62 1008.8
20260505112518 13 248 3.2 8.0 0.00 0.00 0.00 62 1008.8
20260505111536 13 184 4.8 11.3 0.00 0.00 0.00 62 1008.8
20260505110518 13 245 3.2 9.7 0.00 0.00 0.00 63 1008.8
20260505101517 12 225 1.6 4.8 0.00 0.00 0.00 64 1008.8
20260505100540 12 207 1.6 8.0 0.00 0.00 0.00 64 1008.7
20260505095544 11 225 1.6 6.4 0.00 0.00 0.00 64 1008.7
20260505094527 11 178 1.6 8.0 0.00 0.00 0.00 64 1008.8
20260505093531 11 0.0 4.8 0.00 0.00 0.00 64 1008.8
20260505092516 11 195 0.0 3.2 0.00 0.00 0.00 65 1008.8
20260505091519 11 0.0 0.0 0.00 0.00 0.00 65 1008.8
20260505090522 11 0.0 0.0 0.00 0.00 0.00 65 1008.8
20260505085526 11 0.0 0.0 0.00 0.00 0.00 64 1008.9
20260505084529 11 0.0 0.0 0.00 0.00 0.00 63 1009.0
20260505083553 11 0.0 1.6 0.00 0.00 0.00 63 1009.0
20260505082518 11 270 0.0 1.6 0.00 0.00 0.00 62 1009.0
20260505081541 11 0.0 0.0 0.00 0.00 0.00 62 1009.1
20260505080524 11 0.0 0.0 0.00 0.00 0.00 62 1009.2
20260505075542 11 0.0 0.0 0.00 0.00 0.00 62 1009.3
20260505074519 11 0.0 0.0 0.00 0.00 0.00 61 1009.1
20260505073516 11 0.0 0.0 0.00 0.00 0.00 61 1009.2
20260505072519 11 0.0 0.0 0.00 0.00 0.00 61 1009.2
20260505071523 11 101 0.0 3.2 0.00 0.00 0.00 61 1009.2
20260505070526 11 158 0.0 3.2 0.00 0.00 0.00 61 1009.2
20260505065549 11 214 0.0 4.8 0.00 0.00 0.00 61 1009.3
20260505064515 11 0.0 0.0 0.00 0.00 0.00 60 1009.2
20260505063518 12 188 0.0 3.2 0.00 0.00 0.00 60 1009.3
20260505062541 12 0.0 0.0 0.00 0.00 0.00 60 1009.3